Regional Weather Roundup
Issued by NWS Newport/Morehead, NC

Current Version | Previous Version | Graphics & Text | Print | Product List | Glossary Off
Versions: 1 2 3 4 5 6 7 8 9 10 11 12 13 14 15 16 17 18 19 20 21 22 23 24 25 26 27 28 29 30 31 32 33 34 35 36 37 38 39 40 41 42 43 44 45 46 47 48 49 50

000
ASUS42 KMHX 200222
RWRMHX
WEATHER ROUNDUP FOR EASTERN NORTH CAROLINA
NATIONAL WEATHER SERVICE NEWPORT/MOREHEAD CITY NC
1000 PM EDT SAT APR 19 2014

NOTE: "FAIR" INDICATES FEW OR NO CLOUDS BELOW 12,000 FEET
WITH NO SIGNIFICANT WEATHER AND/OR OBSTRUCTIONS TO VISIBILITY

NCZ015>017-031-032-045>047-102-103-200300-
NORTH COAST

CITY           SKY/WX    TMP DP  RH WIND       PRES   REMARKS
EDENTON        DRIZZLE   49  42  79 N8G16     30.22S
ELIZABETH CITY LGT RAIN  50  44  80 N10       30.23R
KITTY HAWK     DRIZZLE   49  47  93 N9        30.17R
MANTEO         CLOUDY    50  48  93 NE16G23   30.17R

$$

NCZ045>047-081-094-103-104-200300-
CENTRAL COAST

CITY           SKY/WX    TMP DP  RH WIND       PRES   REMARKS
FRISCO         LGT RAIN  53  53 100 NE10G21   30.12R FOG
SWANQUARTER      N/A     50 N/A N/A N2G14     30.12S

$$

NCZ095-097-098-100-101-200300-
SOUTHERN COAST

CITY           SKY/WX    TMP DP  RH WIND       PRES   REMARKS
BEAUFORT       LGT RAIN  53  51  93 N20G29    30.11S
CEDAR ISLAND     N/A     54 N/A N/A N18G30    30.18S
JACKSONVILLE   RAIN      49  49 100 N18G24    30.12F
NEWPORT          N/A     50  50 100 N12G20      N/A
PINEY ISLAND   LGT RAIN  54  53  97 N22G29    30.13S
WILMINGTON     LGT RAIN  52  49  89 N20G29    30.08R


$$

NCZ011>013-027>030-043-044-078>080-089-090>093-098-200300-
COASTAL PLAIN

CITY           SKY/WX    TMP DP  RH WIND       PRES   REMARKS
AHOSKIE        CLOUDY    49  43  78 CALM      30.26R
CLINTON        CLOUDY    49  46  87 NE9G20    30.16S
ELIZABETHTOWN  DRIZZLE   49  49 100 N5        30.13R
GOLDSBORO      CLOUDY    50  45  85 NE9       30.18R
GREENVILLE     CLOUDY    50  43  76 NE12      30.22R
HAVELOCK       RAIN      50  47  89 N16       30.15R
KENANSVILLE    CLOUDY    47  44  88 N7        30.17S
KINSTON        NOT AVBL
NEW BERN       LGT RAIN  50  47  89 N13       30.17S
RICHLANDS      CLOUDY    48  48 100 N15       30.14F
ROANOKE RAPIDS NOT AVBL
ROCKY MOUNT    CLOUDY    52  43  71 NE9       30.22R
WASHINGTON     CLOUDY    50  45  83 N9        30.21S
WHITEVILLE     DRIZZLE   50  49  94 NE8       30.10R

$$

AMZ130-135-150-152-154-156-158-170-250-252-270-ANZ085-086-088-633-658-670-200300-
MARINE OBSERVATIONS

STATION/POSITION TIME  TEMP    WIND        PRES    WAVE   SWELL
                       AIR SEA DIR/SP/G            HT/PER HT/PER
                 (UTC) (F)     (DEG/KT/KT) (MB)    (FT/S) (FT/S)
CHESAPEAKE LIGHT 0200   47      40/ 19/ 21 1023.6
BUOY 44014       0200   51 49   30/ 17/ 21 1021.2    6/ 8   3/ 8
DUCK             0200   49 49   20/ 19/ 21 1021.3
2E DUCK          0200      47                N/A     6/ 6   2/11
OREGON INLET     0200   50 51  360/ 15/ 20 1020.6
BUOY 44095       0200      48                N/A     8/ 8   2/11
HATTERAS CG      0200   54 56   20/ 11/ 19 1020.0
DIAMOND BUOY     NOT AVBL
CAPE LOOKOUT     0200   54      20/ 20/ 23 1019.1
BEAUFORT LAB     0200   53 57   20/ 16/ 22 1018.8
30 SE NEW RIVER  0200   57 67   30/ 29/ 33 1017.4    8/ 6   3/10
5 SE WRIGHTSVILL 0200   55 59   40/ 29/ 37 1017.3
FRYING PAN BUOY  0200   63 67   50/ 31/ 37 1014.1   11/ 8   2/17
BUOY 41001       NOT AVBL
BUOY 41002       NOT AVBL
BUOY 41004       NOT AVBL

$$



USA.gov is the U.S. government's official web portal to all federal, state and local government web resources and services.